[[{"header":{"parameterUnit":"m.s-1","parameterCategory":1,"la1":30.2991,"la2":30.254,"lo1":-89.0895,"lo2":-89.0444,"dy":0.0017,"dx":0.0017,"nx":28,"ny":28,"refTime":"2025-08-18T21:00:00:Z","depth":0,"parameterNumber":2,"parameterNumberName":"U-component_of_WINDS"},"data":[0,0,0,0,0,0,0,0,0,0,0,0,0,0,0,0,0,0,0,0,0,0,0,0,0,0,0,0,0,0,0,0,0,0,0,0,0,0,0,0,0,0,0,0,0,0,0,0,0,0,0,0,0,0,0,0,0,0,-1.3902,-1.3901,0,-1.3795,-1.3794,-1.3793,-1.3705,-1.3704,-1.3703,-1.3702,-1.3592,-1.359,-1.3588,0,0,0,0,0,0,0,0,0,0,0,0,0,-1.4033,-1.4031,-1.3902,-1.3901,-1.39,-1.3795,-1.3794,-1.3793,-1.3705,-1.3704,-1.3703,-1.3702,-1.3593,-1.359,-1.3588,0,0,0,0,0,0,0,0,0,0,0,0,0,-1.3956,-1.403,-1.3903,-1.3844,-1.3837,-1.3796,-1.3794,-1.3792,-1.3706,-1.3704,-1.3703,-1.3701,-1.3594,-1.3591,-1.3587,-1.3596,0,0,-1.3578,-1.3577,0,0,0,0,0,0,0,0,-1.396,-1.3951,-1.3854,-1.3848,-1.384,-1.3762,-1.3799,-1.3726,-1.3706,-1.3756,-1.3702,-1.3701,-1.365,-1.3642,-1.3625,-1.359,-1.3586,-1.3578,-1.3576,-1.3574,-1.3573,0,0,0,0,0,0,0,-1.3966,-1.3955,-1.386,-1.3852,-1.3844,-1.3823,-1.3811,-1.3785,-1.3712,-1.3751,-1.3744,-1.3733,-1.3646,-1.3628,-1.3622,-1.3584,-1.3578,-1.3575,-1.3573,-1.3572,-1.3554,-1.3555,0,0,0,0,0,0,-1.398,-1.396,-1.3863,-1.3857,-1.3898,-1.3822,-1.3808,-1.3789,-1.3712,-1.3699,-1.3734,-1.3729,-1.3634,-1.3625,-1.3617,-1.3623,-1.3574,-1.3571,-1.357,-1.3552,-1.3554,-1.3556,0,0,0,0,0,0,-1.3983,-1.3972,-1.3868,-1.3907,-1.3892,-1.3821,-1.38,-1.3787,-1.3769,-1.3699,-1.3685,-1.373,-1.3633,-1.3622,-1.3602,-1.3618,-1.357,-1.3567,-1.3551,-1.3553,-1.3555,-1.3634,0,0,0,0,0,0,-1.3987,-1.3974,-1.3976,-1.3907,-1.389,-1.3854,-1.3801,-1.3786,-1.3764,-1.3757,-1.3691,-1.3679,-1.3631,-1.3608,-1.3599,-1.3613,-1.3565,-1.3549,-1.3552,-1.3554,-1.363,-1.3639,-1.3646,0,0,0,0,0,-1.3992,-1.4002,-1.3976,-1.3965,-1.3891,-1.3855,-1.3845,-1.379,-1.3766,-1.3767,-1.3723,-1.3681,-1.3618,-1.3606,-1.3596,-1.3609,-1.3548,-1.3551,-1.3554,-1.3626,-1.3637,-1.3646,0,0,0,0,0,0,-1.4072,-1.3991,-1.3962,-1.395,-1.391,-1.384,-1.384,-1.3803,-1.3769,-1.3763,-1.3696,-1.3682,-1.3671,-1.3638,-1.3626,-1.3614,-1.3577,-1.3579,-1.3636,-1.3645,-1.3654,-1.3661,-1.3562,0,0,0,0,0,-1.4089,-1.4067,-1.3997,-1.3993,-1.3974,-1.3911,-1.3894,-1.3855,-1.3811,-1.3794,-1.3747,-1.3707,-1.3678,-1.366,-1.3629,-1.3625,-1.361,-1.3629,-1.3638,-1.3645,-1.3646,-1.3644,-1.3652,-1.3566,-1.3566,-1.3566,0,0,-1.4122,-1.4075,-1.4065,-1.4008,-1.3972,-1.3951,-1.3897,-1.3877,-1.3861,-1.379,-1.3769,-1.3735,-1.3685,-1.3674,-1.3666,-1.3646,-1.3667,-1.3649,-1.3655,-1.3653,-1.3648,-1.3656,-1.3664,-1.3568,-1.3568,-1.3567,0,0,-1.4171,-1.4134,-1.4126,-1.4093,-1.4041,-1.3999,-1.3998,-1.3935,-1.3909,-1.3887,-1.3835,-1.3815,-1.3767,-1.3734,-1.3711,-1.3753,-1.3713,-1.3745,-1.3787,-1.3785,-1.3792,-1.3798,-1.3814,-1.382,-1.3747,-1.3747,-1.3747,0,-1.4219,-1.4185,-1.4127,-1.4111,-1.4088,-1.4025,-1.4018,-1.3988,-1.3929,-1.3915,-1.3893,-1.3833,-1.3795,-1.3776,-1.3787,-1.377,-1.3767,-1.3751,-1.3796,-1.3801,-1.3805,-1.382,-1.3826,-1.3751,-1.375,-1.375,-1.375,0,-1.4247,-1.4224,-1.4225,-1.4171,-1.4148,-1.4136,-1.4078,-1.4062,-1.4027,-1.3988,-1.3968,-1.3921,-1.3881,-1.3874,-1.3838,-1.3851,-1.384,-1.3808,-1.377,-1.3819,-1.3831,-1.3836,-1.3757,-1.3755,-1.3754,-1.3753,0,0,-1.4341,-1.4257,-1.4258,-1.4234,-1.4173,-1.4155,-1.4142,-1.4104,-1.4092,-1.4054,-1.4042,-1.4004,-1.3975,-1.3949,-1.391,-1.3909,-1.3946,-1.3877,-1.3875,-1.3892,-1.3959,-1.3983,-1.399,-1.3921,-1.3921,-1.3922,-1.3964,0,-1.4381,-1.4353,-1.4302,-1.4291,-1.427,-1.4212,-1.4201,-1.4163,-1.4128,-1.4106,-1.4066,-1.4041,-1.4004,-1.3989,-1.3985,-1.3943,-1.3959,-1.3939,-1.3909,-1.3909,-1.3923,-1.3996,-1.4021,-1.4062,-1.3968,-1.3969,-1.3969,0,-1.4423,-1.439,-1.4377,-1.432,-1.431,-1.43,-1.4262,-1.4242,-1.4199,-1.4173,-1.4147,-1.4104,-1.4089,-1.4055,-1.4033,-1.402,-1.4006,-1.3984,-1.3984,-1.3978,-1.3941,-1.3993,-1.4074,-1.408,-1.3976,-1.3975,-1.3975,0,-1.4494,-1.4446,-1.4433,-1.4413,-1.4347,-1.4342,-1.4314,-1.427,-1.4251,-1.4218,-1.4206,-1.4171,-1.4153,-1.4128,-1.4078,-1.4058,-1.4062,-1.4024,-1.4041,-1.4042,-1.4043,-1.4044,-1.4123,-1.4035,-1.4035,-1.4035,-1.4034,0,-1.4543,-1.4538,-1.4464,-1.4455,-1.4448,-1.4392,-1.4386,-1.4353,-1.4315,-1.43,-1.4247,-1.4234,-1.417,-1.415,-1.4111,-1.41,-1.4091,-1.4071,-1.406,-1.4075,-1.4078,-1.4064,-1.4059,-1.4036,-1.4036,-1.4035,-1.4035,0,-1.462,-1.4571,-1.4552,-1.4492,-1.4477,-1.4474,-1.4423,-1.4413,-1.4376,-1.4358,-1.435,-1.4292,-1.4266,-1.4214,-1.4174,-1.4148,-1.4145,-1.4127,-1.416,-1.4153,-1.4174,-1.4173,-1.4246,-1.4253,-1.4162,-1.4162,-1.4163,0,-1.4655,-1.465,-1.4589,-1.4576,-1.455,-1.4529,-1.451,-1.4455,-1.4437,-1.439,-1.4387,-1.4357,-1.433,-1.4292,-1.4246,-1.4215,-1.4196,-1.4224,-1.4191,-1.4207,-1.4197,-1.4198,-1.4198,-1.4231,-1.4232,-1.4234,-1.4234,0,-1.4722,-1.4699,-1.4673,-1.464,-1.4619,-1.459,-1.4559,-1.4551,-1.4489,-1.4472,-1.4445,-1.4425,-1.4385,-1.4356,-1.432,-1.4292,-1.4253,-1.4246,-1.4248,-1.4263,-1.4282,-1.4273,-1.418,-1.4244,-1.4243,-1.4242,-1.4242,-1.4241,-1.4779,-1.4772,-1.473,-1.4704,-1.4675,-1.4647,-1.4636,-1.4598,-1.4575,-1.4538,-1.4508,-1.4484,-1.4444,-1.4391,-1.4366,-1.4347,-1.4328,-1.4332,-1.4332,-1.4334,-1.4341,-1.4286,-1.434,-1.434,-1.434,-1.4339,-1.4339,0,-1.4844,-1.4814,-1.4791,-1.4749,-1.473,-1.4696,-1.4661,-1.4646,-1.4627,-1.4592,-1.4568,-1.4539,-1.4512,-1.4465,-1.4435,-1.4429,-1.4411,-1.4423,-1.4422,-1.4417,-1.4359,-1.436,-1.4438,-1.4438,-1.4438,-1.4438,-1.4438,-1.4438,-1.4875,-1.4862,-1.4835,-1.4808,-1.4778,-1.4755,-1.4738,-1.4713,-1.4685,-1.4655,-1.4633,-1.4603,-1.4564,-1.4531,-1.4506,-1.4493,-1.4484,-1.4502,-1.4484,-1.443,-1.4421,-1.4412,-1.4412,-1.45,-1.4501,-1.4543,-1.4543,-1.4544]},{"header":{"parameterUnit":"m.s-1","parameterCategory":1,"la1":30.2991,"la2":30.254,"lo1":-89.0895,"lo2":-89.0444,"dy":0.0017,"dx":0.0017,"nx":28,"ny":28,"refTime":"2025-08-18T21:00:00:Z","depth":0,"parameterNumber":3,"parameterNumberName":"V-component_of_WINDS"},"data":[0,0,0,0,0,0,0,0,0,0,0,0,0,0,0,0,0,0,0,0,0,0,0,0,0,0,0,0,0,0,0,0,0,0,0,0,0,0,0,0,0,0,0,0,0,0,0,0,0,0,0,0,0,0,0,0,0,0,3.6093,3.6093,0,3.61,3.61,3.61,3.6145,3.6147,3.6148,3.6149,3.6151,3.615,3.6149,0,0,0,0,0,0,0,0,0,0,0,0,0,3.6115,3.6115,3.6093,3.6093,3.6093,3.61,3.61,3.61,3.6145,3.6147,3.6148,3.6149,3.6151,3.615,3.6149,0,0,0,0,0,0,0,0,0,0,0,0,0,3.6112,3.6114,3.6093,3.6117,3.6119,3.61,3.61,3.61,3.6145,3.6147,3.6148,3.615,3.6151,3.615,3.6149,3.6106,0,0,3.6144,3.6143,0,0,0,0,0,0,0,0,3.6112,3.6111,3.6113,3.6115,3.6117,3.6124,3.6109,3.6102,3.6145,3.6135,3.6149,3.6151,3.614,3.614,3.6137,3.6106,3.6106,3.6144,3.6143,3.6142,3.6142,0,0,0,0,0,0,0,3.6112,3.6111,3.6096,3.6113,3.6116,3.6126,3.6127,3.6108,3.6128,3.6136,3.6139,3.614,3.6141,3.6138,3.6137,3.6106,3.6144,3.6143,3.6142,3.6141,3.604,3.6038,0,0,0,0,0,0,3.611,3.6111,3.6095,3.6096,3.6119,3.6124,3.6126,3.612,3.6128,3.6131,3.6138,3.6142,3.614,3.6139,3.6138,3.6088,3.6142,3.6141,3.614,3.6042,3.604,3.6038,0,0,0,0,0,0,3.611,3.6108,3.6095,3.6104,3.6104,3.6122,3.6115,3.6119,3.6116,3.613,3.6133,3.6132,3.6141,3.614,3.6114,3.6088,3.614,3.6139,3.6044,3.6041,3.6039,3.5988,0,0,0,0,0,0,3.6111,3.6108,3.6092,3.6104,3.6103,3.6072,3.6114,3.6118,3.6114,3.6119,3.6125,3.6127,3.6143,3.6116,3.6112,3.6087,3.6138,3.6046,3.6043,3.604,3.5992,3.5984,3.5977,0,0,0,0,0,3.6111,3.6077,3.6091,3.6089,3.6084,3.607,3.607,3.609,3.6112,3.6096,3.6105,3.6127,3.6092,3.6113,3.6109,3.6083,3.6048,3.6044,3.604,3.5995,3.5985,3.5977,0,0,0,0,0,0,3.606,3.6078,3.6095,3.6063,3.6065,3.6078,3.6058,3.6079,3.6073,3.6077,3.6101,3.6102,3.6072,3.6075,3.6098,3.6043,3.6074,3.6069,3.6041,3.6032,3.6024,3.6023,3.6136,0,0,0,0,0,3.6045,3.6034,3.605,3.6021,3.6021,3.604,3.6034,3.605,3.6052,3.6052,3.606,3.6059,3.6049,3.6041,3.6032,3.5993,3.5995,3.5974,3.5966,3.596,3.5955,3.5935,3.5925,3.6025,3.6025,3.6025,0,0,3.6014,3.6023,3.6013,3.601,3.6014,3.6,3.604,3.6023,3.6013,3.6049,3.6025,3.6031,3.6032,3.6,3.5986,3.6002,3.5928,3.5955,3.595,3.5948,3.593,3.592,3.5912,3.6022,3.6022,3.6023,0,0,3.5949,3.5956,3.5932,3.5935,3.594,3.5953,3.5947,3.5958,3.5963,3.594,3.5967,3.5955,3.5936,3.5936,3.5933,3.5872,3.5891,3.5868,3.5828,3.5808,3.58,3.5793,3.577,3.5761,3.5863,3.5863,3.5863,0,3.5909,3.5891,3.5916,3.5899,3.5896,3.5931,3.5906,3.5908,3.5909,3.5905,3.5924,3.5902,3.5905,3.5873,3.5858,3.5856,3.5849,3.5866,3.5799,3.5793,3.5787,3.5765,3.5756,3.586,3.586,3.5861,3.5861,0,3.5841,3.5828,3.5808,3.581,3.5806,3.5785,3.5806,3.5798,3.5814,3.5825,3.5801,3.5807,3.58,3.5794,3.5809,3.5764,3.5774,3.5796,3.5827,3.5774,3.5754,3.5746,3.5856,3.5857,3.5858,3.5859,0,0,3.5742,3.576,3.5752,3.5754,3.5763,3.5753,3.5734,3.5729,3.5721,3.5721,3.5704,3.5689,3.571,3.5707,3.5722,3.5705,3.5655,3.5729,3.5729,3.5714,3.5605,3.5587,3.5577,3.5669,3.5668,3.5666,3.5604,0,3.5679,3.5648,3.5671,3.5635,3.5623,3.5657,3.564,3.5643,3.5653,3.5644,3.5655,3.5643,3.5671,3.567,3.5655,3.5664,3.5633,3.5669,3.5652,3.5651,3.5648,3.5567,3.5548,3.5488,3.5597,3.5595,3.5594,0,3.5602,3.56,3.5564,3.5577,3.5572,3.5557,3.5554,3.5545,3.555,3.5558,3.5556,3.5577,3.5557,3.5591,3.5564,3.5588,3.5583,3.5586,3.5585,3.5582,3.5618,3.556,3.547,3.5461,3.5582,3.5583,3.5584,0,3.5531,3.5521,3.5498,3.5498,3.5513,3.5501,3.5506,3.5513,3.5508,3.5506,3.5503,3.5498,3.5494,3.5489,3.5508,3.553,3.5478,3.5513,3.5483,3.5483,3.5469,3.5469,3.5375,3.5468,3.5468,3.5468,3.5469,0,3.5458,3.5434,3.5467,3.5452,3.5426,3.5453,3.5426,3.5435,3.544,3.5427,3.5456,3.5443,3.5469,3.5458,3.5473,3.5448,3.5446,3.5452,3.5455,3.5448,3.5447,3.5443,3.5447,3.5466,3.5467,3.5467,3.5467,0,3.5374,3.5395,3.5372,3.5389,3.5393,3.5372,3.5386,3.5373,3.5386,3.5369,3.5367,3.5386,3.5375,3.5394,3.5385,3.5395,3.536,3.537,3.5358,3.5361,3.533,3.5332,3.5228,3.5216,3.5318,3.5317,3.5317,0,3.5325,3.5308,3.5323,3.5318,3.5322,3.5312,3.5309,3.5334,3.5329,3.5334,3.532,3.5312,3.5307,3.5287,3.53,3.5293,3.5303,3.5267,3.5302,3.5295,3.5301,3.5301,3.5299,3.5259,3.5258,3.5257,3.5256,0,3.5235,3.5247,3.5242,3.524,3.5236,3.5235,3.5237,3.523,3.5258,3.525,3.524,3.5237,3.5229,3.522,3.5216,3.522,3.5242,3.5246,3.5238,3.523,3.5223,3.5225,3.5337,3.5247,3.5248,3.5249,3.5249,3.525,3.5167,3.5153,3.5162,3.5155,3.516,3.5161,3.5149,3.5162,3.5155,3.5151,3.5167,3.5153,3.5159,3.5157,3.5159,3.5148,3.5164,3.5153,3.515,3.5147,3.5141,3.5227,3.5148,3.5148,3.5148,3.5149,3.5149,0,3.5077,3.5086,3.5079,3.5081,3.5076,3.51,3.5103,3.5096,3.5085,3.5089,3.5084,3.5073,3.5065,3.5078,3.5072,3.506,3.507,3.5058,3.5058,3.5058,3.5128,3.5135,3.505,3.505,3.505,3.505,3.505,3.505,3.503,3.5008,3.5021,3.5002,3.501,3.4998,3.4998,3.4999,3.5002,3.4989,3.4983,3.4993,3.5,3.4995,3.4989,3.4993,3.4989,3.4972,3.4979,3.5044,3.5053,3.5063,3.5069,3.4972,3.4971,3.491,3.491,3.4909]}]]